Meteo pe oră la Bolshie Kozly

Astăzi, 9 Mai, Duminică

Timp Temperatura Precipitaţii Vânt Presiune Umiditate
00:00 +2°C° 0 mm 2 m/s 749 mmHg 92%
01:00 +2°C° 0 mm 2 m/s 750 mmHg 92%
02:00 +1°C° 0 mm 2 m/s 750 mmHg 93%
03:00 +1°C° 0 mm 2 m/s 751 mmHg 94%
04:00 +1°C° 0 mm 2 m/s 751 mmHg 94%
05:00 +2°C° 0 mm 1 m/s 751 mmHg 94%
06:00 +3°C° 0 mm 1 m/s 752 mmHg 89%
07:00 +4°C° 0 mm 2 m/s 752 mmHg 83%
08:00 +6°C° 0 mm 2 m/s 752 mmHg 78%
09:00 +8°C° 0 mm 2 m/s 752 mmHg 69%
10:00 +9°C° 0 mm 3 m/s 752 mmHg 61%
11:00 +11°C° 0 mm 3 m/s 752 mmHg 53%
12:00 +11°C° 0 mm 3 m/s 752 mmHg 50%
13:00 +12°C° 0 mm 3 m/s 752 mmHg 47%
14:00 +13°C° 0 mm 4 m/s 752 mmHg 44%
15:00 +13°C° 0 mm 4 m/s 752 mmHg 48%
16:00 +13°C° 0 mm 4 m/s 752 mmHg 51%
17:00 +13°C° 0 mm 4 m/s 751 mmHg 55%
18:00 +12°C° 0 mm 4 m/s 751 mmHg 59%
19:00 +11°C° 0 mm 3 m/s 751 mmHg 64%
20:00 +10°C° 0 mm 3 m/s 751 mmHg 69%
21:00 +10°C° 0 mm 4 m/s 752 mmHg 68%
22:00 +10°C° 0 mm 4 m/s 752 mmHg 67%
23:00 +10°C° 0 mm 4 m/s 752 mmHg 67%

Mâine, 10 Mai, Luni

Timp Temperatura Precipitaţii Vânt Presiune Umiditate
00:00 +10°C° 0 mm 4 m/s 752 mmHg 69%
01:00 +8°C° 0 mm 4 m/s 752 mmHg 71%
02:00 +8°C° 0 mm 4 m/s 752 mmHg 72%
03:00 +7°C° 0 mm 4 m/s 752 mmHg 76%
04:00 +6°C° 0 mm 4 m/s 752 mmHg 79%
05:00 +6°C° 0 mm 4 m/s 752 mmHg 82%
06:00 +7°C° 0 mm 4 m/s 752 mmHg 78%
07:00 +9°C° 0 mm 5 m/s 753 mmHg 75%
08:00 +12°C° 0 mm 5 m/s 753 mmHg 71%
09:00 +13°C° 0 mm 6 m/s 753 mmHg 66%
10:00 +15°C° 0 mm 6 m/s 753 mmHg 61%
11:00 +17°C° 0 mm 7 m/s 753 mmHg 56%
12:00 +17°C° 0 mm 7 m/s 753 mmHg 55%
13:00 +18°C° 0 mm 7 m/s 753 mmHg 53%
14:00 +20°C° 0 mm 7 m/s 752 mmHg 52%
15:00 +18°C° 0 mm 7 m/s 752 mmHg 55%
16:00 +19°C° 0 mm 6 m/s 752 mmHg 58%
17:00 +19°C° 0 mm 6 m/s 752 mmHg 61%
18:00 +16°C° 0 mm 5 m/s 752 mmHg 66%
19:00 +15°C° 0 mm 5 m/s 752 mmHg 70%
20:00 +13°C° 0 mm 4 m/s 752 mmHg 75%
21:00 +13°C° 0 mm 4 m/s 752 mmHg 76%
22:00 +12°C° 0 mm 5 m/s 752 mmHg 78%
23:00 +10°C° 0 mm 5 m/s 752 mmHg 79%

Poimâine, 11 Mai, Marţi

Timp Temperatura Precipitaţii Vânt Presiune Umiditate
00:00 +10°C° 0 mm 5 m/s 752 mmHg 79%
01:00 +9°C° 0 mm 5 m/s 752 mmHg 79%
02:00 +9°C° 0 mm 5 m/s 752 mmHg 78%
03:00 +9°C° 0 mm 5 m/s 752 mmHg 79%
04:00 +8°C° 0 mm 5 m/s 752 mmHg 80%
05:00 +8°C° 0 mm 5 m/s 753 mmHg 81%
06:00 +9°C° 0 mm 5 m/s 753 mmHg 77%
07:00 +10°C° 0 mm 6 m/s 752 mmHg 73%
08:00 +12°C° 0 mm 7 m/s 752 mmHg 69%
09:00 +14°C° 0 mm 7 m/s 752 mmHg 63%
10:00 +16°C° 0 mm 7 m/s 752 mmHg 58%
11:00 +17°C° 0 mm 8 m/s 752 mmHg 53%
12:00 +17°C° 0 mm 7 m/s 752 mmHg 50%
13:00 +18°C° 0 mm 7 m/s 752 mmHg 48%
14:00 +20°C° 0 mm 7 m/s 752 mmHg 46%
15:00 +18°C° 0 mm 7 m/s 751 mmHg 49%
16:00 +19°C° 0 mm 6 m/s 751 mmHg 52%
17:00 +19°C° 0 mm 6 m/s 751 mmHg 55%
18:00 +16°C° 0 mm 6 m/s 751 mmHg 59%
19:00 +15°C° 0 mm 5 m/s 751 mmHg 63%
20:00 +13°C° 0 mm 5 m/s 751 mmHg 67%
21:00 +12°C° 0 mm 5 m/s 751 mmHg 68%
22:00 +10°C° 0 mm 5 m/s 751 mmHg 69%
23:00 +10°C° 0 mm 5 m/s 750 mmHg 70%

12 Mai, Miercuri

Timp Temperatura Precipitaţii Vânt Presiune Umiditate
00:00 +10°C° 0 mm 4 m/s 750 mmHg 74%
01:00 +10°C° 0 mm 4 m/s 750 mmHg 79%
02:00 +8°C° 0 mm 4 m/s 750 mmHg 83%
03:00 +8°C° 0 mm 4 m/s 750 mmHg 86%
04:00 +8°C° 0 mm 4 m/s 750 mmHg 89%
05:00 +8°C° 0 mm 4 m/s 750 mmHg 92%
06:00 +11°C° 0 mm 4 m/s 750 mmHg 87%
07:00 +12°C° 0 mm 5 m/s 750 mmHg 82%
08:00 +14°C° 0 mm 5 m/s 750 mmHg 78%
09:00 +15°C° 0 mm 6 m/s 749 mmHg 70%
10:00 +16°C° 0 mm 6 m/s 749 mmHg 63%
11:00 +17°C° 0 mm 6 m/s 749 mmHg 56%
12:00 +19°C° 0 mm 6 m/s 748 mmHg 59%
13:00 +19°C° 0 mm 6 m/s 748 mmHg 62%
14:00 +19°C° 0 mm 5 m/s 747 mmHg 65%
15:00 +19°C° 0.1 mm 5 m/s 747 mmHg 68%
16:00 +17°C° 0.1 mm 5 m/s 747 mmHg 72%
17:00 +16°C° 0.1 mm 5 m/s 746 mmHg 75%
18:00 +15°C° 0.5 mm 5 m/s 746 mmHg 81%
19:00 +13°C° 0.5 mm 5 m/s 746 mmHg 87%
20:00 +11°C° 0.5 mm 6 m/s 746 mmHg 92%
21:00 +10°C° 0.3 mm 6 m/s 746 mmHg 91%
22:00 +9°C° 0.3 mm 6 m/s 746 mmHg 91%
23:00 +9°C° 0.3 mm 5 m/s 747 mmHg 90%

13 Mai, Joi

Timp Temperatura Precipitaţii Vânt Presiune Umiditate
00:00 +8°C° 0 mm 5 m/s 747 mmHg 92%
01:00 +7°C° 0 mm 5 m/s 746 mmHg 94%
02:00 +6°C° 0 mm 4 m/s 746 mmHg 95%
03:00 +7°C° 0 mm 4 m/s 746 mmHg 95%
04:00 +7°C° 0 mm 4 m/s 746 mmHg 95%
05:00 +7°C° 0 mm 4 m/s 746 mmHg 94%
06:00 +8°C° 0 mm 4 m/s 745 mmHg 92%
07:00 +8°C° 0 mm 4 m/s 745 mmHg 90%
08:00 +10°C° 0 mm 4 m/s 745 mmHg 88%
09:00 +10°C° 0.1 mm 4 m/s 744 mmHg 89%
10:00 +10°C° 0.1 mm 4 m/s 744 mmHg 90%
11:00 +10°C° 0.1 mm 3 m/s 743 mmHg 91%
12:00 +10°C° 0.4 mm 3 m/s 743 mmHg 91%
13:00 +10°C° 0.4 mm 3 m/s 742 mmHg 92%
14:00 +10°C° 0.4 mm 3 m/s 742 mmHg 92%
15:00 +10°C° 0.3 mm 3 m/s 741 mmHg 93%
16:00 +10°C° 0.3 mm 3 m/s 741 mmHg 93%
17:00 +10°C° 0.3 mm 2 m/s 741 mmHg 93%
18:00 +10°C° 0.1 mm 3 m/s 741 mmHg 94%
19:00 +9°C° 0.1 mm 3 m/s 741 mmHg 94%
20:00 +9°C° 0.1 mm 3 m/s 741 mmHg 95%
21:00 +9°C° 0 mm 2 m/s 741 mmHg 94%
22:00 +9°C° 0 mm 2 m/s 741 mmHg 94%
23:00 +9°C° 0 mm 2 m/s 741 mmHg 93%

14 Mai, Vineri

Timp Temperatura Precipitaţii Vânt Presiune Umiditate
00:00 +8°C° 0 mm 2 m/s 741 mmHg 94%
01:00 +8°C° 0 mm 2 m/s 741 mmHg 95%
02:00 +8°C° 0 mm 3 m/s 741 mmHg 95%
03:00 +7°C° 0 mm 3 m/s 741 mmHg 96%
04:00 +7°C° 0 mm 3 m/s 741 mmHg 97%
05:00 +5°C° 0 mm 3 m/s 741 mmHg 97%
06:00 +8°C° 0 mm 3 m/s 741 mmHg 94%
07:00 +9°C° 0 mm 3 m/s 742 mmHg 90%
08:00 +10°C° 0 mm 3 m/s 742 mmHg 87%
09:00 +12°C° 0 mm 3 m/s 742 mmHg 80%
10:00 +13°C° 0 mm 3 m/s 742 mmHg 73%
11:00 +16°C° 0 mm 2 m/s 742 mmHg 66%
12:00 +17°C° 0.1 mm 3 m/s 742 mmHg 62%
13:00 +17°C° 0.1 mm 3 m/s 742 mmHg 59%
14:00 +18°C° 0.1 mm 3 m/s 742 mmHg 56%
15:00 +17°C° 0.1 mm 3 m/s 742 mmHg 64%
16:00 +16°C° 0.1 mm 3 m/s 742 mmHg 71%
17:00 +14°C° 0.1 mm 3 m/s 742 mmHg 79%
18:00 +13°C° 0 mm 3 m/s 742 mmHg 83%
19:00 +14°C° 0 mm 2 m/s 742 mmHg 87%
20:00 +13°C° 0 mm 2 m/s 742 mmHg 92%
21:00 +13°C° 0 mm 2 m/s 742 mmHg 92%
22:00 +12°C° 0 mm 1 m/s 742 mmHg 93%
23:00 +12°C° 0 mm 1 m/s 742 mmHg 94%
Arată mai mult

Formular de consimțământ

Meteoprog și furnizorii noștri de servicii pot stoca și accesa date personale, precum cookies, identificatori de dispozitiv sau alte tehnologii similare pe dispozitivul dumneavoastră și procesa astfel de date pentru a personaliza conținutul și reclamele, dar și pentru a oferi caracteristici de social media și pentru a analiza traficul.

  • Stocarea și/sau accesarea informațiilor pe dispozitivul dumneavoastră

    Cookies, identificatori de dispozitiv sau alte informații pot fi stocate sau accesate pe dispozitiv în scopurile indicate mai sus.

  • Reclame și conținut personalizat, evaluarea reclamelor și a conținutului, informații despre audiențe și dezvoltarea produselor

    Reclamele și conținutul pot fi personalizate pe baza unui profil. Pot fi adăugate date suplimentare pentru a personaliza mai bine reclamele și conținutul. Performanța reclamelor și conținutului poate fi măsurată. Pot fi obținute informații despre utilizatorii care au văzut reclamele și conținutul. Aceste date pot fi utilizate pentru a dezvolta sau îmbunătăți experiența utilizatorilor, sistemele și software-ul.

Dând clic pe ‘Sunt de acord’, permiteți utilizarea cookie-urilor menționate, a identificatorilor de dispozitiv, balizelor web sau altor tehnologii similare. Setările pot fi modificate din browser-ul dispozitivului dumneavoastră.

În anumite scopuri, interesele legitime pot prima asupra consimțământului. Puteți citi mai multe informații în acest sens în Politica privind Confidențialitatea Datelor și Cookie.